Location: S�yn�tsalo
(62.1333°N, 25.7667°E)
Time: 17:06:30
(UTC+00:00)

Daily predictions for brighter satellites

Satellite Brightness Start Highest point End
(mag) Time Altitude Azimuth Time Altitude Azimuth Time Altitude Azimuth
NOSS 3-4 (A) 4.1 19:45:10 10° WNW 19:51:37 57° SW 19:58:52 10° SE
NOSS 3-4 (C) 4.1 19:45:16 10° WNW 19:51:43 57° SW 19:58:58 10° SE
Meteor 1-5 Rocket 4.4 19:47:52 10° NNW 19:53:22 70° WSW 19:58:41 10° S
Cosmos 2084 Rocket 3.4 19:50:34 10° WNW 19:54:43 75° SSW 19:59:02 10° ESE
NOSS 2-1 (E) 3.7 19:51:35 10° W 19:55:16 75° N 20:00:04 10° E
Cosmos 1470 Rocket 4.3 19:52:28 10° NNW 19:56:51 54° W 20:01:13 10° S
Cosmos 2074 Rocket 4.1 19:50:59 10° NNW 19:57:19 87° WSW 20:03:39 10° S
Cosmos 44 3.6 19:52:11 10° WNW 19:57:40 79° SSW 20:03:04 10° SE
Cosmos 1437 2.5 19:55:40 10° S 19:58:28 60° ESE 20:01:19 10° NNE
ATLAS 5 CENTAUR R/B 4.0 19:54:56 10° WNW 19:58:49 20° WSW 20:03:10 10° SSW
Cosmos 1812 2.9 19:57:48 10° S 20:01:35 57° E 20:05:25 10° NNE
Cosmos 1844 3.7 19:56:47 10° SSW 20:02:29 77° SE 20:08:09 10° NE
Cosmos 968 Rocket 3.9 19:57:57 10° SW 20:03:13 73° NW 20:08:27 10° NE
ATLAS 2AS CENTAUR R/B 3.0 19:57:49 10° WNW 20:05:23 67° SW 20:12:24 10° SE
ALOS 2 3.8 20:02:17 10° ESE 20:06:13 33° NE 20:10:10 10° N
Cosmos 1328 Rocket 3.6 20:02:38 10° SSW 20:07:04 88° W 20:11:32 10° NNE
Cosmos 2112 Rocket 4.2 20:02:23 10° NW 20:07:47 82° NE 20:13:09 10° SE
Cosmos 1833 Rocket 3.6 20:02:36 10° NW 20:07:53 42° WSW 20:13:10 10° S
SL-24 R/B - RUBIN 2 4.2 20:04:09 10° WNW 20:10:04 69° SW 20:15:16 10° SE
Cosmos 1486 Rocket 4.3 20:05:23 10° SW 20:10:44 76° NW 20:16:08 10° NE
Cosmos 1933 Rocket 4.1 20:07:11 10° NNW 20:11:26 55° W 20:15:41 10° S
Cosmos 1666 3.3 20:09:16 10° NNW 20:12:58 53° W 20:16:35 10° S
Meteor 1-26 Rocket 4.4 20:07:30 10° SSW 20:13:09 78° WNW 20:18:42 10° NNE
Nadezhda 1 Rocket 4.4 20:08:02 10° SSE 20:14:03 49° E 20:20:01 10° NNE
Cosmos 2315 Rocket 4.3 20:09:29 10° SSW 20:15:53 77° WNW 20:22:20 10° NNE
USA 215 3.5 20:10:09 10° ESE 20:16:32 52° SSW 20:22:55 10° W
Cosmos 2227 Rocket 4.1 20:12:27 10° WNW 20:17:36 34° N 20:22:45 10° ENE
Cosmos 1743 3.1 20:14:12 10° N 20:18:00 54° ENE 20:21:47 10° SSE
Cosmos 2297 Rocket 4.0 20:16:21 10° WNW 20:21:31 34° N 20:26:42 10° ENE
Iridium 4 Rocket 3.9 20:23:27 10° S 20:29:16 85° W 20:35:15 10° N
Cosmos 2341 Rocket 4.2 20:25:26 10° NNW 20:31:52 72° ENE 20:38:14 10° SSE
Cosmos 1242 Rocket 4.1 20:29:05 10° SW 20:32:25 35° WNW 20:35:44 10° N
Cosmos 2366 rocket 4.4 20:27:10 10° NNW 20:33:14 55° ENE 20:39:18 10° SE
Cosmos 1733 Rocket 3.4 20:30:29 10° N 20:34:48 59° ENE 20:38:57 11° SSE
Cosmos 1680 Rocket 3.7 20:30:40 10° NW 20:35:58 67° WSW 20:41:08 11° SSE
Resurs 01 Rocket 4.4 20:36:29 10° WSW 20:38:13 12° W 20:39:58 10° NW
Cosmos 2082 Rocket 2.9 20:35:53 10° NW 20:41:10 43° WSW 20:46:26 10° S
Cosmos 1818 3.7 20:35:53 10° WNW 20:41:20 66° SW 20:46:47 10° SE
NOSS 2-1 (C) 3.6 20:38:05 10° WNW 20:41:51 80° NNE 20:46:52 10° E
Meteor 1-27 Rocket 4.1 20:36:36 10° S 20:42:19 58° E 20:48:08 10° NNE
SJ 16-02 1.7 20:38:55 10° S 20:43:11 48° ESE 20:47:28 10° NE
CZ-4C R/B 4.1 20:38:18 10° WNW 20:44:06 29° WSW 20:50:40 10° S
Cosmos 2228 Rocket 3.2 20:40:24 10° S 20:44:48 67° E 20:49:17 10° NNE
Meteor 2-6 Rocket 4.3 20:43:04 10° SSW 20:48:31 84° WNW 20:54:09 10° NNE
NOSS 2-1 (D) 3.6 20:44:48 10° WNW 20:48:35 82° N 20:53:39 10° E
Cosmos 1782 4.4 20:47:16 10° SW 20:50:59 35° WNW 20:54:42 10° N
Cosmos 2218 Rocket 4.2 20:44:59 10° NNW 20:51:13 68° ENE 20:57:18 11° SSE
H-2A R/B 3.6 20:48:22 10° NNE 20:52:37 84° WNW 20:56:49 10° SSW
COSMOS 2455 3.7 20:52:36 10° WNW 20:58:34 56° N 21:04:30 10° E
USA 281 4.1 20:53:23 10° ESE 20:59:39 49° NNE 21:05:56 10° NW
ERBS 3.3 20:58:55 10° WSW 21:01:47 27° SSW 21:04:20 12° SE
Cosmos 1271 Rocket 2.9 21:01:04 10° SSW 21:05:04 78° WNW 21:09:07 10° NNE
Cosmos 1777 Rocket 4.0 21:01:49 10° SSW 21:07:02 89° WNW 21:12:18 10° NE
Terra 3.5 21:03:48 10° SSW 21:07:49 27° W 21:11:52 10° NNW
Cosmos 1340 Rocket 3.5 21:06:26 10° NNW 21:10:24 49° W 21:14:05 12° S
Cosmos 2278 Rocket 2.2 21:08:06 10° SSW 21:13:44 69° SE 21:19:23 10° NE
Okean 1 4.0 21:10:57 13° SSE 21:14:10 41° E 21:17:57 10° NNE
Cosmos 1544 4.1 21:14:21 10° NNW 21:17:42 37° W 21:20:56 11° SSW
Cosmos 1782 Rocket 4.5 21:13:27 10° N 21:17:46 43° ENE 21:22:02 10° SE
Spot 4 4.2 21:14:20 12° S 21:18:46 61° WSW 21:23:37 10° NNW
Cosmos 1536 4.2 21:16:15 10° NNW 21:19:54 32° W 21:23:31 10° SSW
SL-8 Rocket 4.1 21:14:43 10° NNW 21:21:05 79° W 21:26:56 12° S
Cosmos 1898 Rocket 4.1 21:17:24 12° S 21:21:55 41° ESE 21:26:55 10° NE
Cosmos 2263 Rocket 4.0 21:17:19 10° WNW 21:22:28 35° N 21:27:40 10° ENE
Cosmos 44 Rocket 3.6 21:17:59 10° WNW 21:23:17 84° NNE 21:28:32 10° ESE
Cosmos 1862 Rocket 4.1 21:19:52 14° SSE 21:23:25 45° E 21:27:34 10° NNE
Meteor 2-9 Rocket 4.4 21:17:37 10° NNW 21:23:32 80° WSW 21:28:43 13° S
Cosmos 1515 4.0 21:20:36 14° S 21:23:40 53° E 21:27:23 10° NNE
Cosmos 2369 Rocket 3.9 21:21:42 10° SE 21:25:29 19° E 21:29:18 10° ENE
Cosmos 2084 3.6 21:22:13 10° SW 21:26:18 49° SE 21:30:30 10° ENE
Cosmos 1844 Rocket 3.8 21:21:01 10° WSW 21:26:28 49° NNW 21:31:56 10° NE
RESURS DK-1 2.4 21:25:21 10° NW 21:29:34 86° NE 21:33:45 10° SE
COBE Rocket 4.0 21:27:36 13° SSE 21:32:09 90° NE 21:37:22 10° NNW
Cosmos 1975 2.8 21:29:09 10° NNW 21:33:10 82° WSW 21:36:27 15° S
Cosmos 2084 Rocket 4.4 21:30:08 10° WNW 21:33:50 30° SW 21:36:50 14° SSE
Cosmos 1943 Rocket 3.1 21:30:25 13° SSE 21:34:39 31° ESE 21:39:31 10° NE
SL-27 R/B 2.9 21:33:08 10° NNW 21:36:25 55° NE 21:39:42 10° SE
SAR-Lupe-2 4.4 21:34:11 10° NNE 21:37:35 38° E 21:40:12 15° SSE
ALOS 2 2.9 21:38:41 14° S 21:42:24 60° WSW 21:46:47 10° NNW
Meteor 2-4 Rocket 4.4 21:38:27 13° SSE 21:43:18 43° E 21:48:34 10° NNE
Cosmos 990 Rocket 4.1 21:40:01 11° SSW 21:45:03 63° ESE 21:50:17 10° NE
NOSS 2-1 (E) 3.7 21:41:49 10° WNW 21:45:52 79° SSW 21:51:27 10° ESE
Cosmos 1707 Rocket 3.6 21:42:54 11° SSW 21:47:03 80° WNW 21:51:31 10° NNE
Cosmos 1238 Rocket 4.5 21:46:05 10° NNW 21:52:27 54° W 21:57:51 12° SSW
Sich 1 Rocket 4.4 21:49:01 10° N 21:53:30 48° ENE 21:57:55 10° SE
Cosmos 1743 4.3 21:50:19 10° NNW 21:53:32 26° W 21:56:47 10° SSW
Cosmos 494 Rocket 4.0 21:49:41 10° NW 21:54:58 90° NE 22:00:10 10° SSE
SeaSat 1 3.8 21:51:05 10° NE 21:55:08 25° ESE 21:58:33 13° SSE
Cosmos 2344 4.1 21:46:58 10° WNW 21:55:15 70° SW 22:06:28 10° SE
ATLAS 2AS CENTAUR R/B 3.9 21:49:07 10° WNW 21:55:20 29° WSW 22:00:32 13° S
Meteor 1-18 Rocket 4.4 21:50:36 13° S 21:55:34 66° ESE 22:01:08 10° NNE
Okean 1-7 3.9 21:53:25 13° SSE 21:56:47 37° E 22:00:46 10° NNE
NOSS 3-3 (A) 4.1 21:51:27 10° WSW 21:57:40 79° SSE 22:04:58 10° ENE
NOSS 3-3 (C) 4.1 21:51:34 10° WSW 21:57:47 79° SSE 22:05:04 10° ENE
Helios 1A 4.0 21:55:43 10° SE 21:59:39 42° ENE 22:03:36 10° N
Cosmos 1833 4.3 21:54:04 10° NW 21:59:48 72° SW 22:05:33 10° SSE
USA 215 4.0 21:55:02 11° SSE 22:00:34 32° SW 22:06:19 10° W
Cosmos 2227 Rocket 3.5 21:57:29 10° NW 22:02:54 43° NNE 22:08:17 10° E
BREEZE-M DEB (TANK) 4.1 22:01:50 10° WSW 22:04:20 15° SSW 22:04:40 15° SSW
CZ-2D R/B 4.5 22:03:54 10° NE 22:06:25 13° ENE 22:08:54 10° ESE
Cosmos 2242 Rocket 4.1 22:02:53 14° SSE 22:06:27 49° E 22:10:47 10° NNE
Cosmos 2297 Rocket 3.3 22:01:13 10° NW 22:06:44 48° NNE 22:12:14 10° ESE
Cosmos 2297 3.9 22:03:58 12° SSW 22:09:10 56° ESE 22:14:43 10° NE
Cosmos 1733 Rocket 4.4 22:08:39 10° NNW 22:12:23 29° W 22:16:02 10° SSW
Cosmos 2181 Rocket 4.0 22:07:22 12° SSW 22:13:12 83° WNW 22:19:23 10° NNE
Cosmos 2151 Rocket 4.5 22:14:11 10° N 22:18:36 47° ENE 22:22:59 10° SE
Okean 2 Rocket 3.7 22:14:18 10° N 22:18:39 54° ENE 22:22:58 10° SSE
Cosmos 1821 Rocket 4.1 22:14:03 10° NNW 22:20:28 78° W 22:26:15 13° S
SJ 16-02 2.4 22:17:35 10° WSW 22:21:51 45° NW 22:26:10 10° NNE
Meteor 1-15 Rocket 4.4 22:17:34 10° NNW 22:23:13 76° ENE 22:28:57 10° SSE
Thor Agena Rocket 3.8 22:18:05 10° NNE 22:23:16 62° ESE 22:27:48 14° S
EO 1 Delta rocket 4.4 22:18:54 12° SSE 22:23:41 81° ENE 22:30:02 10° NNW
Cosmos 2082 Rocket 4.4 22:21:57 10° WNW 22:23:53 12° W 22:25:49 10° WSW
Cosmos 1908 Rocket 4.2 22:20:02 10° NNW 22:24:20 46° W 22:27:56 14° SSW
Cosmos 1934 Rocket 4.1 22:20:32 10° NNW 22:26:48 80° ENE 22:32:49 11° SSE
Cosmos 1937 Rocket 3.5 22:24:06 12° SSW 22:28:58 77° ESE 22:34:10 10° NE
Cosmos 1269 Rocket 4.1 22:25:11 10° NW 22:30:32 82° NE 22:35:51 10° SE
Cosmos 1300 Rocket 3.7 22:26:14 10° NNW 22:30:42 76° ENE 22:34:51 12° SSE
Resurs 1-4 Rocket 4.2 22:27:45 10° NE 22:31:17 18° E 22:34:48 10° SE
Cosmos 1048 Rocket 4.4 22:26:08 10° NW 22:31:18 50° WSW 22:35:45 13° S
NOSS 2-1 (C) 3.9 22:28:15 10° WNW 22:32:19 54° SSW 22:37:51 10° SE
MOZ.5/SAFIR/RUBIN 5/SL-8 4.3 22:28:37 10° SE 22:33:09 56° ENE 22:37:43 10° NNW
SL-16 R/B 3.3 22:27:10 10° SE 22:33:15 55° ENE 22:39:21 10° NNW
YAOGAN 11 4.2 22:29:28 10° SSE 22:33:41 77° ENE 22:38:01 10° NNW
Nimbus 7 Rocket 4.4 22:28:09 10° NNE 22:34:03 82° ESE 22:39:29 13° SSW
ERBS 4.3 22:35:36 10° WSW 22:37:04 13° SW 22:37:04 13° SW
Cosmos 1356 Rocket 3.6 22:33:50 10° NNW 22:38:04 67° WSW 22:41:40 14° S
NOSS 2-1 (D) 4.0 22:34:58 10° WNW 22:39:02 50° SW 22:44:34 10° SE
Cosmos 2219 3.9 22:37:00 10° NW 22:42:38 57° NE 22:48:17 10° ESE
USA 281 3.2 22:37:23 10° SSE 22:43:58 78° WSW 22:50:36 10° NW
COSMOS 2455 2.9 22:38:57 10° WNW 22:45:02 87° NE 22:51:05 10° SE
Meteor 1-19 Rocket 4.4 22:40:49 10° SSW 22:46:07 64° WNW 22:51:31 10° NNE
SL-24 R/B 4.1 22:45:03 11° SSE 22:49:27 82° WSW 22:53:44 10° NNW
Okean 1 4.5 22:46:51 10° SW 22:50:36 37° WNW 22:54:21 10° N
COSMOS 2487 2.3 22:51:24 10° NW 22:54:51 87° SW 22:58:15 10° SSE
Cosmos 1782 Rocket 4.3 22:51:28 10° NNW 22:55:42 41° W 22:59:17 13° SSW
Cosmos 1461 3.9 22:53:28 14° SSW 22:57:02 36° SE 23:01:13 10° ENE
Cosmos 2278 Rocket 3.1 22:52:36 10° WSW 22:58:08 50° NNW 23:03:40 10° NE
Cosmos 1703 Rocket 3.7 22:57:18 13° SSW 23:01:08 74° WNW 23:05:35 10° NNE
Cosmos 1898 Rocket 4.0 22:58:36 10° SW 23:03:53 62° NW 23:09:14 10° NE
Cosmos 2221 Rocket 4.4 22:59:47 11° SSE 23:03:59 47° E 23:08:22 10° NNE
Cosmos 44 Rocket 3.8 22:59:41 10° WNW 23:04:39 44° SW 23:09:33 10° SSE
Cosmos 2084 3.5 23:01:24 10° W 23:05:41 87° N 23:10:06 10° E
RESURS DK-1 3.7 23:03:47 10° WNW 23:07:11 25° WSW 23:09:53 14° SSW
Cosmos 2263 Rocket 3.9 23:02:27 10° NW 23:07:42 38° NNE 23:12:57 10° E
Cosmos 1378 3.1 23:04:38 14° SSW 23:07:43 85° ESE 23:11:29 10° NNE
Nadezhda 3 Rocket 4.1 23:02:11 12° SSW 23:07:59 85° WNW 23:14:15 10° NNE
Cosmos 2369 Rocket 2.4 23:03:27 12° SSW 23:08:33 62° ESE 23:14:09 10° NE
Cosmos 2150 Rocket 4.4 23:04:47 13° S 23:09:28 54° ESE 23:14:38 10° NE
Cosmos 1805 3.6 23:07:24 10° NNW 23:11:15 53° W 23:14:33 13° S
SL-27 R/B 3.7 23:08:31 10° NW 23:11:15 24° WSW 23:13:17 14° SSW
Cosmos 1733 3.4 23:09:41 10° NNW 23:13:25 59° W 23:16:42 13° S
PSLV R/B 3.7 23:09:55 10° NNE 23:14:29 88° WNW 23:18:26 13° SSW
Meteor 1-13 Rocket 4.2 23:09:32 13° SSW 23:14:38 85° ESE 23:20:12 10° NNE
Cosmos 1726 2.8 23:11:08 10° N 23:14:49 53° ENE 23:18:27 10° SSE
TSX-5 3.9 23:12:57 10° NW 23:16:05 60° NE 23:19:25 10° ESE
Timation 2 Rocket 4.0 23:10:58 10° NW 23:17:04 80° NE 23:23:05 10° SE
Cosmos 1766 3.4 23:13:30 10° NNW 23:17:28 63° W 23:21:04 12° S
Cosmos 1943 Rocket 2.2 23:12:18 10° SW 23:17:57 86° NW 23:23:36 10° NE
Helios 1B rocket 4.2 23:15:45 10° NE 23:19:13 25° E 23:22:41 10° SSE
Cosmos 1758 4.1 23:18:21 10° N 23:22:23 52° ENE 23:26:25 10° SE
Cosmos 1867 4.4 23:18:57 12° SSW 23:23:29 37° SE 23:28:31 10° ENE
EO 1 Del DPAF 3.2 23:20:32 10° NNE 23:24:17 76° WNW 23:27:38 13° SSW
DNEPR-1 R/B 3.9 23:20:24 10° SW 23:25:43 63° SE 23:30:15 10° ENE
Cosmos 1605 Rocket 4.1 23:19:33 10° NNW 23:25:44 72° W 23:31:58 10° S
APEX 4.2 23:22:43 10° NW 23:26:10 51° NE 23:30:28 10° ESE
Meteor 2-4 Rocket 4.2 23:20:36 10° SW 23:26:15 56° WNW 23:31:47 10° NNE
UNK 3.8 23:22:49 10° SSE 23:27:25 81° ENE 23:32:02 10° NNW
Cosmos 2263 4.4 23:22:38 12° SSW 23:28:00 64° SE 23:33:46 10° NE
Cosmos 1459 Rocket 4.4 23:24:38 10° NNW 23:31:00 66° ENE 23:37:12 10° SSE
Cosmos 1315 Rocket 3.6 23:27:19 10° NNW 23:31:12 51° ENE 23:35:06 10° SE
Sich 1 Rocket 4.5 23:27:23 10° NNW 23:31:40 38° W 23:35:34 12° SSW
Cosmos 1400 Rocket 2.9 23:27:46 10° NNW 23:31:56 74° WSW 23:36:02 10° S
Okean 3 3.6 23:28:08 12° SSW 23:32:02 69° WNW 23:36:18 10° NNE
Cosmos 1066 Rocket 4.3 23:26:44 12° SSW 23:32:14 89° ESE 23:37:56 10° NNE
Okean 1 Rocket 3.1 23:28:49 10° NNW 23:33:18 89° WSW 23:37:42 10° SSE
SeaSat 1 2.5 23:28:19 10° NE 23:33:19 81° SE 23:38:16 10° SW
Meteor 1-23 Rocket 4.4 23:28:21 11° S 23:33:59 76° ESE 23:39:50 10° NNE
Okean 1-7 3.8 23:30:15 10° SW 23:34:20 44° WNW 23:38:29 10° N
ATLAS CENTAUR R/B 2.7 23:32:11 11° S 23:34:58 23° SE 23:38:02 10° ENE
Helios 1A 3.6 23:31:39 12° SSW 23:35:15 41° W 23:39:14 10° NNW
Cosmos 372 Rocket 4.2 23:30:55 10° SW 23:36:00 69° NW 23:41:08 10° NE
USA 81 4.2 23:31:58 10° NNW 23:37:13 62° W 23:42:25 10° S
EP 1 4.2 23:36:40 10° WSW 23:39:17 85° NNW 23:41:59 10° ENE
Cosmos 1470 2.7 23:35:30 10° NNW 23:39:26 88° WSW 23:43:21 10° SSE
Cosmos 2173 Rocket 4.2 23:34:23 10° NNW 23:40:32 74° ENE 23:46:44 10° SSE
Cosmos 1125 Rocket 3.7 23:35:51 11° SSW 23:40:48 68° ESE 23:46:01 10° NE
MINOTAUR 4 R/B 4.2 23:38:24 10° SSE 23:41:59 79° ENE 23:45:35 10° NNW
Cosmos 1656 Rocket 3.8 23:39:04 11° SSW 23:44:22 70° SE 23:49:55 10° NE
Cosmos 407 Rocket 4.3 23:39:41 10° NW 23:44:58 57° NE 23:50:15 10° SE
Cosmos 2227 Rocket 2.2 23:41:49 10° NW 23:47:31 89° SW 23:53:12 10° SE
CZ-2D R/B 2.9 23:42:34 10° NNE 23:47:53 48° E 23:53:06 10° S
NOSS 3-3 (A) 4.5 23:42:15 10° W 23:48:49 80° N 23:56:31 10° E
NOSS 3-3 (C) 4.5 23:42:22 10° W 23:48:56 81° N 23:56:36 10° E
Meteor 1-28 Rocket 4.2 23:47:36 10° SE 23:51:10 46° ENE 23:54:45 10° N
Cosmos 2297 Rocket 2.2 23:45:30 10° NW 23:51:11 75° SW 23:56:51 10° SSE
Cosmos 2297 4.3 23:47:49 10° WSW 23:53:27 57° NW 23:59:04 10° NE
Cosmos 1674 Rocket 3.8 23:50:10 10° S 23:54:35 70° E 23:59:04 10° NNE
